Flag for U.S.A. Weather past 2 weeks in Kalispell, Montana, U.S.A.

Now
47 °F

Light rain. Partly sunny.


Feels Like: 44 °F
Forecast: 33 / 56 °F
Wind: 6 mph from Southwest

Location: Kalispell - Glacier Park International

Current Time: Mar 28, 2015 at 9:28:48 PM

Latest Report: Mar 28, 2015 at 8:55 PM


Visibility: 8 mi

Pressure: 30.23 "Hg

Humidity: 69%

Dew point: 37 °F

Location of KalispellLocation

Historic Weather in Kalispell — Graph

°F

Kalispell temperature yesterday

Maximum temperature yesterday: 67 °F (at 5:55 PM)
Minimum temperature yesterday: 30 °F (at 5:55 AM)
Average temperature yesterday: 45 °F

Past Weeks' High & Low Weather Summary

 TemperatureHumidityPressure
High67 °F (Mar 27, 5:55 PM)100% (Mar 15, 4:55 AM)30.34 "Hg (Mar 15, 4:55 AM)
Low25 °F (Mar 22, 6:55 AM)23% (Mar 22, 3:55 PM)29.75 "Hg (Mar 28, 4:55 AM)
Average42 °F79%30.07 "Hg
* Reported Mar 13 7:55 PM — Mar 28 7:55 PM, Kalispell, Weather by CustomWeather, © 2015

Note: Actual official high and low records may vary slightly from our data, if they occured in-between our weather recording intervals... More about our weather records

Advertising

Kalispell weather history for previous 24 hours

 ConditionsComfort  
Time TempWeatherWind HumidityBarometerVisibility
7:55 PM
Sat, Mar 28
50 °FMostly cloudy.12 mph52%30.19 "Hg10 mi
6:55 PM51 °FOvercast.5 mph50%30.16 "Hg10 mi
5:55 PM51 °FMostly cloudy.13 mph52%30.12 "Hg10 mi
4:55 PM54 °FMore clouds than sun.8 mph43%30.06 "Hg10 mi
3:55 PM52 °FOvercast.16 mph43%30.03 "Hg10 mi
2:55 PM50 °FMostly cloudy.16 mph50%30.01 "Hg10 mi
1:55 PM51 °FMostly cloudy.23 mph50%30.00 "Hg10 mi
12:55 PM48 °FPassing clouds.18 mph61%29.99 "Hg10 mi
11:55 AM48 °FMore clouds than sun.17 mph52%29.96 "Hg10 mi
10:55 AM47 °FOvercast.15 mph64%29.95 "Hg10 mi
9:55 AM47 °FOvercast.15 mph71%29.90 "Hg10 mi
8:55 AM48 °FOvercast.15 mph77%29.86 "Hg10 mi
7:55 AM46 °FMostly cloudy.3 mph93%29.83 "Hg10 mi
6:55 AM44 °FMostly cloudy.5 mph96%29.79 "Hg10 mi
5:55 AM45 °FLight rain. Overcast.5 mph93%29.75 "Hg10 mi
4:55 AM45 °FLight rain. Fog.6 mph93%29.75 "Hg6 mi
3:55 AM44 °FMostly cloudy.7 mph93%29.77 "Hg10 mi
2:55 AM45 °FLight rain. Partly cloudy.3 mph90%29.81 "Hg9 mi
1:55 AM40 °FPassing clouds.No wind97%29.80 "Hg10 mi
12:55 AM38 °FFog.No wind97%29.86 "Hg2 mi
11:55 PM
Fri, Mar 27
40 °FClear.3 mph97%29.89 "Hg10 mi
10:55 PM42 °FClear.3 mph92%29.91 "Hg10 mi
9:55 PM46 °FClear.3 mph86%29.92 "Hg10 mi
Weather by CustomWeather, © 2015

See weather overviewHow to use our weather pages